Weather History for KOXR - January, 2013

Change the Weather History Date:

Monday, January 21, 2013

  Actual Average Record
Temperature  
Mean Temperature 64 °F -  
Max Temperature 81 °F 64 °F 81 °F (2013)
Min Temperature 48 °F 45 °F 31 °F (1962)
Growing Degree Days 14 (Base 50)    
Moisture  
Dew Point 13 °F    
Average Humidity 18    
Maximum Humidity 71    
Minimum Humidity 5    
Precipitation  
Precipitation 0.00 in - - ()
Sea Level Pressure  
Sea Level Pressure 30.04 in    
Wind  
Wind Speed 10 mph (East)    
Max Wind Speed 21 mph    
Max Gust Speed 71 mph    
Visibility 10 miles    
Events      
Averages and records for this station are not official NWS values.
T = Trace of Precipitation, MM = Missing Value Source: NWS Daily Summary

Daily Weather History Graph

Daily Weather History Graph

Search for Another Location

Airport or City:

Trip Planner

Search our weather history database for the weather conditions in past years. The results will help you decide how hot, cold, wet, or windy it might be!

Date:

Astronomy

Jan. 21, 2013 Rise Set
Actual Time 7:00 AM PST 5:16 PM PST
Civil Twilight 6:33 AM PST 5:43 PM PST
Nautical Twilight 6:02 AM PST 6:13 PM PST
Astronomical Twilight 5:33 AM PST 6:43 PM PST
Moon 1:00 PM PST (1/21) 2:32 AM PST (1/21)
Length of Visible Light 11h 09m
Length of Day
10h 16m
Waxing Gibbous, 76% of the Moon is Illuminated
Jan 21
Waxing Gibbous
Jan 26
Full
Feb 3
Last Quarter
Feb 9
New
Feb 17
First Quarter

Hourly Weather History & Observations

Time (PST) Temp. Dew Point Humidity Pressure Visibility Wind Dir Wind Speed Gust Speed Precip Events Conditions
12:51 AM 48.0 °F 25.0 °F 41% 30.06 in 10.0 mi Calm Calm - N/A   Clear
1:51 AM 52.0 °F 19.9 °F 28% 30.04 in 10.0 mi East 5.8 mph - N/A   Clear
2:51 AM 61.0 °F 12.0 °F 15% 30.03 in 10.0 mi East 12.7 mph - N/A   Clear
3:51 AM 64.0 °F 9.0 °F 12% 30.01 in 10.0 mi East 16.1 mph - N/A   Clear
4:51 AM 64.0 °F 9.0 °F 12% 30.02 in 10.0 mi East 15.0 mph - N/A   Clear
5:51 AM 64.9 °F 9.0 °F 11% 30.01 in 10.0 mi East 17.3 mph - N/A   Clear
6:51 AM 64.9 °F 8.1 °F 11% 30.02 in 10.0 mi East 12.7 mph - N/A   Clear
7:51 AM 64.9 °F 9.0 °F 11% 30.04 in 10.0 mi East 11.5 mph - N/A   Clear
8:51 AM 70.0 °F 10.9 °F 10% 30.07 in 10.0 mi East 12.7 mph - N/A   Clear
9:51 AM 73.9 °F 10.0 °F 9% 30.09 in 10.0 mi East 20.7 mph 71.3 mph N/A   Clear
10:51 AM 78.1 °F 7.0 °F 7% 30.10 in 10.0 mi ENE 19.6 mph 27.6 mph N/A   Clear
11:51 AM 79.0 °F 7.0 °F 6% 30.07 in 10.0 mi East 18.4 mph 28.8 mph N/A   Clear
12:51 PM 81.0 °F 6.1 °F 6% 30.04 in 10.0 mi East 19.6 mph 24.2 mph N/A   Clear
1:51 PM 81.0 °F 3.9 °F 5% 30.02 in 10.0 mi East 18.4 mph 25.3 mph N/A   Clear
2:51 PM 81.0 °F 6.1 °F 6% 30.02 in 10.0 mi East 16.1 mph 23.0 mph N/A   Clear
3:51 PM 79.0 °F 3.0 °F 5% 30.00 in 10.0 mi East 16.1 mph 21.9 mph N/A   Clear
4:51 PM 75.9 °F 5.0 °F 6% 29.99 in 10.0 mi East 12.7 mph - N/A   Clear
5:51 PM 73.0 °F 5.0 °F 7% 30.01 in 10.0 mi ESE 5.8 mph - N/A   Clear
6:51 PM 68.0 °F 7.0 °F 9% 30.02 in 10.0 mi East 8.1 mph - N/A   Clear
7:51 PM 52.0 °F 43.0 °F 71% 30.04 in 10.0 mi WNW 5.8 mph - N/A   Clear
8:51 PM 51.1 °F 37.0 °F 59% 30.07 in 10.0 mi Calm Calm - N/A   Clear
9:51 PM 55.0 °F 25.0 °F 31% 30.08 in 10.0 mi ENE 6.9 mph - N/A   Clear
11:51 PM 53.1 °F 21.0 °F 29% 30.06 in 10.0 mi Calm Calm - N/A   Clear